GFSGL_250_spd_159.txt.gz
Wind_Speed
95 87 85 78 75 81 82 83 82 87 83 83 82 86 88 90 91 91 93 90 93 87 80 75 76 73 76 78 80 82 85 89 92 96 100 101 102 106 108 103 101 100 107
90 88 81 71 73 79 80 76 68 87 86 84 86 86 91 96 93 91 90 87 77 69 71 75 76 78 79 81 82 86 88 91 96 99 100 103 106 105 102 101 98 104 112
89 86 76 69 70 73 71 63 69 88 86 83 77 74 74 76 74 72 71 66 64 69 72 74 78 80 81 82 86 88 90 93 95 97 101 104 103 98 97 99 101 109 115
88 75 71 64 60 58 57 56 67 82 81 81 68 64 62 61 61 59 57 60 67 73 74 76 79 81 82 86 88 91 91 94 99 101 104 102 97 98 93 97 107 110 104
78 67 65 59 53 56 58 57 69 78 73 71 69 60 55 55 60 58 62 67 66 73 77 77 80 80 86 88 88 91 94 98 100 102 100 97 93 92 94 101 105 100 96
70 61 52 48 50 62 61 63 75 68 65 65 63 57 52 54 59 65 68 66 72 76 80 80 82 83 88 89 91 94 98 98 101 96 96 92 91 95 97 103 103 87 84
58 60 51 42 63 64 76 72 66 61 63 63 56 54 56 59 68 71 71 73 74 77 82 84 86 88 89 90 92 97 98 100 95 96 92 87 93 99 98 97 90 84 80
63 57 49 61 72 83 85 79 66 67 68 60 54 58 60 69 72 74 73 73 76 79 81 85 88 88 90 93 95 98 97 95 95 89 84 89 98 98 101 96 81 83 73
59 61 61 71 74 83 78 90 81 78 79 66 63 63 66 75 79 78 76 76 78 81 84 84 87 92 93 95 97 97 95 96 94 89 91 96 101 107 100 84 81 75 65
56 75 72 85 87 90 74 83 85 82 75 71 66 66 73 78 79 80 77 80 80 80 85 87 92 94 96 98 96 96 96 94 90 94 97 102 108 109 93 83 72 62 49
67 74 85 90 99 89 84 82 83 81 81 76 71 75 75 78 82 81 81 81 84 84 87 92 95 96 99 97 97 96 91 90 93 97 104 102 105 95 88 78 63 49 42
72 82 85 86 87 88 101 93 89 91 84 78 73 76 79 82 83 80 79 83 86 88 90 94 94 98 97 96 96 93 92 95 99 105 110 112 103 91 82 67 53 36 31
75 93 88 93 85 81 84 87 79 72 69 75 79 82 82 79 79 83 86 84 86 89 93 93 98 98 96 96 95 93 95 97 101 110 106 96 90 81 66 52 38 29 22
78 85 90 93 96 95 87 80 70 71 79 82 79 81 79 78 84 84 83 87 90 92 93 95 96 95 96 93 92 94 97 103 108 117 107 96 80 65 51 40 30 22 14
80 84 87 100 92 93 93 94 94 86 79 78 79 77 78 81 82 85 86 88 91 93 95 94 95 93 87 90 95 98 106 112 113 105 93 76 66 52 37 30 23 17 9
84 78 84 83 81 80 83 78 74 74 76 78 78 81 82 83 84 84 86 90 92 93 93 93 88 86 91 94 100 106 113 109 99 87 74 64 53 39 27 23 17 10 6
81 85 90 86 82 77 76 77 78 77 78 78 78 78 79 80 84 87 87 89 90 88 88 85 86 91 95 103 109 108 107 95 85 73 64 51 40 30 21 15 10 7 8
76 77 81 82 85 83 80 76 75 75 74 74 75 76 78 81 82 83 85 86 86 84 83 85 92 97 102 108 105 102 93 81 72 62 49 39 28 22 15 9 6 8 11
68 70 70 71 73 69 66 71 74 70 70 71 72 75 77 79 80 80 82 82 80 81 84 88 96 104 109 98 93 85 76 68 60 48 39 27 21 17 11 7 8 10 14
52 49 52 55 56 60 62 64 64 66 68 69 71 72 74 76 78 77 78 79 82 87 92 97 102 106 94 89 77 68 62 54 46 37 26 20 18 13 10 7 11 13 14
44 46 41 37 43 50 52 59 61 61 64 68 68 71 72 69 67 73 78 83 87 92 98 102 104 91 82 71 63 56 48 43 33 26 21 17 13 11 9 8 13 16 19
41 46 47 48 49 50 53 54 57 62 64 66 68 67 64 68 74 81 85 87 93 99 102 96 86 75 66 59 51 43 38 30 25 21 18 13 10 9 9 10 15 19 22
39 51 54 54 54 54 56 60 61 62 62 60 60 64 70 73 80 87 94 99 103 98 88 82 74 64 54 47 39 32 26 23 19 16 15 14 11 7 9 11 17 22 26
46 43 47 50 52 54 55 55 55 56 58 61 66 71 73 80 83 90 96 101 93 86 79 74 62 52 47 38 31 27 23 19 19 20 19 18 15 13 12 15 20 25 28
45 46 47 49 51 51 49 51 53 59 63 69 73 78 83 88 92 95 97 90 84 79 75 62 54 47 42 36 30 27 25 24 24 23 23 22 22 20 19 19 22 28 31
32 37 41 44 47 49 54 58 63 68 72 76 79 83 85 89 91 91 90 86 81 73 64 57 49 45 40 35 32 30 29 29 29 29 27 26 26 25 23 21 23 27 31

GFSGL_250_spd_162.txt.gz
Wind_Speed
112 107 104 94 86 80 75 72 67 75 69 76 83 79 78 77 82 81 84 89 90 89 85 78 77 68 64 70 74 76 79 83 84 85 91 94 97 102 104 99 97 88 91
111 109 101 95 85 71 68 63 54 79 77 79 82 81 82 82 81 85 86 87 85 75 74 73 67 64 70 72 75 77 82 85 88 92 95 98 100 104 101 98 92 92 98
108 108 93 91 79 73 67 62 64 64 75 78 74 80 82 78 80 81 76 75 71 70 65 71 63 69 72 76 77 82 85 89 92 96 99 100 105 103 100 94 92 97 101
102 102 84 80 76 69 64 55 55 55 56 61 73 80 81 80 76 78 80 72 69 66 67 63 68 72 73 79 84 85 90 94 95 100 99 105 105 100 95 90 99 104 109
93 84 83 68 66 66 65 57 57 60 64 63 68 75 76 70 74 73 70 69 65 64 62 65 69 74 79 84 89 90 92 94 102 102 103 107 103 100 96 97 99 104 112
78 76 76 60 62 66 61 51 52 50 56 63 68 69 65 68 70 70 70 68 65 64 66 72 75 77 80 88 91 95 95 101 104 105 107 107 104 97 97 99 104 108 109
71 67 59 56 55 57 52 49 55 64 68 66 71 71 69 67 68 71 70 69 69 69 70 77 78 82 84 88 94 99 101 105 107 107 109 107 104 99 100 103 109 114 113
67 64 61 41 53 51 54 46 55 65 66 78 75 71 75 67 73 75 74 71 70 73 78 78 84 85 87 90 95 101 104 108 111 111 110 106 102 100 103 104 111 114 95
70 69 49 60 72 61 55 39 58 66 78 77 81 82 78 69 75 75 71 74 77 77 82 86 83 88 91 94 104 106 111 112 111 110 107 103 102 103 106 109 112 93 80
65 61 38 53 66 61 54 63 79 69 81 91 88 80 76 74 77 70 75 81 78 82 86 90 89 90 93 99 106 111 113 113 112 109 105 103 105 108 110 108 94 80 64
65 47 57 69 55 57 58 71 83 89 95 93 84 80 80 80 75 75 82 86 87 88 92 91 92 95 96 103 112 116 116 112 107 106 102 104 107 112 111 94 79 68 53
70 44 51 60 61 66 93 75 86 94 92 86 80 79 85 89 85 87 84 89 86 86 90 88 95 102 108 111 117 119 112 107 106 101 103 108 110 111 96 82 70 49 39
69 68 72 73 65 61 66 83 93 85 85 86 85 88 94 88 83 86 90 84 87 87 88 101 104 111 111 118 121 114 108 104 101 105 109 109 108 97 85 73 50 37 29
67 72 76 80 83 83 79 79 84 86 94 92 87 84 77 79 84 85 79 86 90 91 100 106 113 116 115 122 114 105 102 100 104 108 110 111 98 84 71 53 38 26 21
72 70 82 75 79 72 75 78 79 78 75 76 77 77 75 83 78 76 85 92 96 104 110 113 114 115 119 108 103 100 99 101 107 112 109 96 84 71 54 39 26 19 12
72 73 74 73 75 73 73 75 77 79 83 79 83 86 93 82 79 85 97 99 104 112 114 112 116 116 104 101 98 95 101 108 111 110 97 84 71 56 41 27 18 11 7
61 60 65 76 81 80 79 79 81 85 90 81 81 78 77 84 91 94 100 108 109 111 108 111 110 100 97 95 93 99 106 112 106 92 86 70 54 44 29 20 13 7 7
62 70 74 74 71 69 76 80 75 75 77 72 71 79 89 95 96 101 107 105 104 105 108 103 97 94 92 93 101 109 114 104 91 78 65 51 41 28 19 13 9 7 9
62 63 63 63 63 66 72 81 83 81 87 90 93 97 101 100 103 101 97 94 98 101 96 92 91 90 93 98 106 112 102 88 74 61 49 39 29 19 14 8 7 8 12
62 61 64 64 63 63 64 69 73 79 83 86 92 95 96 91 85 84 88 94 87 85 86 87 88 91 97 106 110 106 87 73 58 47 37 29 22 15 11 7 8 11 15
57 55 58 61 60 64 67 70 74 76 78 77 76 75 71 77 83 87 85 81 82 83 86 91 93 100 107 112 100 88 75 58 46 35 27 21 18 15 11 7 9 13 17
60 53 53 59 65 68 71 71 68 63 62 63 66 69 75 82 81 75 77 79 82 87 91 98 102 104 112 98 87 73 60 46 36 25 20 17 16 15 13 8 11 14 18
50 55 51 50 54 56 55 59 61 61 65 67 72 76 72 69 71 72 77 84 91 95 99 102 106 109 96 85 72 61 50 41 32 22 18 17 16 14 13 11 11 16 18
48 51 53 52 55 55 57 57 56 59 64 64 62 62 67 72 75 80 84 90 94 99 102 108 99 90 82 72 61 52 45 38 32 26 22 19 18 16 14 15 11 15 20
49 48 49 48 48 50 52 56 55 53 57 62 67 68 69 72 78 84 90 96 102 103 97 93 87 78 71 60 52 47 42 38 33 31 27 24 22 20 19 19 18 17 22
44 46 47 46 46 47 49 52 57 60 61 62 64 70 74 78 84 91 97 101 97 94 89 83 77 68 60 53 47 43 39 37 34 32 30 28 26 23 21 23 22 22 23

GFSGL_250_spd_165.txt.gz
Wind_Speed
107 102 113 112 110 114 103 84 75 83 82 77 75 72 72 69 71 75 74 76 78 80 82 83 82 82 80 79 75 72 78 79 87 89 91 99 105 113 119 125 121 119 116
93 97 103 102 109 112 107 92 75 76 73 67 65 66 64 65 69 72 75 77 78 81 86 82 81 83 80 78 74 73 80 83 89 93 96 104 107 116 122 130 129 121 120
81 86 93 92 103 112 104 95 79 74 65 60 64 59 60 64 71 72 74 76 82 86 83 81 79 78 76 76 77 76 81 86 92 96 99 107 114 121 132 134 134 136 125
70 78 87 91 92 91 96 90 72 70 66 57 56 60 59 62 77 73 81 80 75 79 78 80 78 76 79 78 77 82 86 90 93 98 101 110 116 129 130 131 135 134 127
64 73 89 93 88 80 80 72 68 66 58 57 54 63 62 71 82 83 79 71 76 77 79 78 78 80 83 86 83 88 89 95 97 102 105 111 123 133 135 138 141 128 122
58 71 84 92 84 87 78 65 69 62 54 40 46 61 52 66 74 75 73 77 77 77 81 78 78 82 85 85 87 93 97 96 101 102 110 121 131 139 143 145 135 121 115
65 72 83 91 81 82 71 66 65 60 52 26 47 74 77 72 70 71 70 76 77 78 80 80 86 89 86 88 90 91 95 105 108 105 115 125 135 143 143 139 133 125 122
64 74 83 80 83 79 75 65 59 60 59 50 50 56 68 78 71 79 76 80 84 84 82 82 89 91 86 91 93 103 101 104 105 110 119 130 136 143 142 134 124 124 119
66 77 79 80 74 69 61 59 57 55 50 52 69 79 82 90 69 72 77 82 83 83 80 84 87 89 85 96 99 106 101 107 111 118 132 134 139 141 136 126 127 120 101
73 78 84 73 41 62 62 57 54 54 51 52 58 65 84 73 77 76 82 84 91 85 86 91 90 91 97 103 102 107 102 108 120 126 134 137 139 140 129 132 121 104 82
84 80 69 69 68 62 58 53 53 54 55 60 66 73 83 85 76 79 86 92 89 89 91 90 94 98 101 105 105 104 107 118 126 132 132 138 143 135 132 135 113 86 71
79 74 71 65 56 46 45 42 48 50 60 65 65 79 84 83 85 98 92 93 93 91 94 92 96 100 101 97 98 106 114 120 127 131 134 139 139 134 138 121 92 74 58
67 64 56 55 54 54 59 48 51 55 59 61 58 64 71 81 89 94 90 91 92 97 96 95 98 99 93 103 110 114 125 125 130 131 138 137 132 131 120 96 76 61 47
59 57 64 60 47 52 61 57 61 59 59 59 64 70 78 84 93 100 96 99 97 95 96 96 101 98 96 104 107 118 123 129 130 135 137 130 125 118 101 78 64 50 35
59 52 59 42 44 52 55 57 65 61 71 75 73 75 76 86 88 87 85 88 92 100 94 85 89 97 108 115 120 123 125 129 131 135 130 124 120 104 77 66 52 37 28
56 48 53 51 50 49 64 75 83 77 73 65 59 70 78 81 85 86 88 91 88 83 91 95 101 100 109 114 119 125 129 128 131 126 121 117 105 80 67 54 38 29 20
57 61 58 51 55 59 62 62 60 57 61 59 62 69 73 77 82 88 88 82 83 91 93 93 99 109 120 126 123 125 127 129 125 119 119 99 82 70 59 45 32 20 14
49 50 54 57 61 60 61 62 67 69 62 63 66 69 74 78 77 76 81 83 91 95 102 109 110 117 117 117 120 125 120 115 117 114 95 82 72 62 48 35 26 16 10
35 38 46 52 53 55 59 57 57 62 65 69 73 73 75 76 83 88 93 94 99 102 102 105 109 111 114 118 119 113 113 114 108 94 82 74 63 54 38 28 20 14 8
43 45 47 49 50 53 58 61 64 67 70 75 75 77 82 84 88 93 93 94 98 97 98 102 104 104 113 111 115 110 111 103 94 86 75 66 55 44 32 23 17 11 9
46 43 44 42 48 53 53 54 60 67 74 72 72 74 80 84 81 80 81 86 90 92 97 100 104 109 109 111 108 107 102 93 84 74 69 56 45 35 27 20 14 10 10
43 44 50 52 50 52 53 56 61 64 66 69 72 74 75 77 79 81 82 86 85 90 101 102 106 104 102 105 103 99 89 84 77 68 57 49 39 32 25 19 13 10 11
35 31 39 45 48 52 55 55 59 64 66 69 69 69 69 73 81 85 90 93 98 104 103 103 99 98 100 95 91 90 86 79 70 63 51 43 37 31 27 21 15 11 12
37 42 44 39 45 50 53 57 59 61 59 58 68 73 82 89 89 86 84 91 103 94 90 90 92 92 90 89 93 88 81 70 65 55 46 39 34 31 29 25 19 14 13
38 39 42 45 48 49 54 62 60 60 63 71 77 86 89 86 85 85 80 78 80 84 91 91 92 92 95 94 88 80 72 67 56 49 42 37 33 30 31 28 24 20 16
44 49 53 58 61 61 58 57 60 66 67 66 69 73 69 68 70 75 78 82 84 88 92 95 95 99 98 90 80 72 65 56 50 44 38 34 29 28 28 29 27 24 22

GFSGL_250_spd_168.txt.gz
Wind_Speed
117 122 115 119 123 120 117 109 109 106 101 87 74 69 67 66 62 58 64 71 72 76 70 71 73 78 72 80 83 83 86 90 90 90 93 98 101 105 108 114 119 126 132
97 103 99 103 108 121 118 115 111 109 96 93 80 68 63 63 62 64 68 72 74 67 72 71 72 72 77 84 81 84 87 90 89 94 98 105 108 109 111 115 121 128 136
78 84 85 89 97 104 117 119 117 109 100 92 84 66 61 58 54 61 63 62 64 71 67 76 76 73 80 84 82 87 90 87 92 99 103 109 111 114 118 124 129 136 140
69 67 64 75 89 96 105 110 111 109 101 96 82 71 60 56 54 68 73 57 63 67 69 73 72 76 83 77 84 89 90 91 97 97 106 111 115 112 118 112 131 134 145
60 52 55 65 80 90 96 98 94 108 100 84 72 67 59 56 56 43 63 64 68 64 65 71 72 79 82 81 82 91 89 92 93 103 106 111 113 120 113 134 127 129 145
49 42 45 55 66 64 81 84 88 100 95 80 68 68 60 60 58 52 79 83 75 69 64 72 72 80 84 86 91 96 95 96 104 104 109 115 115 112 127 128 129 142 141
38 36 38 50 60 68 72 80 85 77 78 74 70 73 66 57 56 63 59 70 74 68 69 67 76 82 87 92 94 94 92 102 107 107 113 115 115 120 122 126 140 141 149
31 32 44 53 64 70 71 80 69 72 72 74 70 71 68 58 60 65 60 67 69 74 75 73 82 84 87 93 95 92 99 102 108 111 115 118 122 124 125 132 128 146 154
34 43 53 69 74 80 76 66 67 71 74 70 68 66 63 62 52 62 68 67 75 80 83 83 84 87 92 94 93 93 102 108 112 116 119 124 122 120 129 131 145 154 156
44 56 65 72 74 74 73 69 65 65 64 69 67 59 51 58 65 62 73 69 65 71 76 77 88 90 95 97 94 97 106 113 116 117 121 120 128 132 134 140 148 145 155
57 60 69 74 76 77 75 67 57 57 60 59 57 55 55 52 46 50 55 61 70 73 84 95 89 95 94 96 97 103 113 113 115 115 109 128 135 136 138 144 140 147 142
61 77 80 77 75 69 61 60 56 54 50 47 45 48 47 56 58 58 68 75 75 79 84 83 90 92 94 100 107 107 110 113 118 118 122 128 134 140 143 135 143 154 127
83 83 84 74 66 60 57 53 47 44 43 40 44 48 49 50 54 63 62 64 69 78 85 91 94 96 102 104 103 109 109 106 109 119 131 135 139 140 136 142 145 137 112
85 85 72 65 60 55 59 49 35 39 44 47 49 51 47 54 57 58 61 67 74 79 85 91 95 97 100 104 109 106 108 115 113 122 126 132 137 129 136 146 144 128 77
79 67 55 48 50 54 58 43 35 47 48 51 53 55 52 57 59 62 70 75 75 77 82 85 88 96 101 101 105 106 107 111 120 126 126 125 126 135 136 141 139 104 59
59 52 48 49 56 40 46 46 51 51 46 58 57 58 57 58 64 69 68 70 76 77 80 84 87 90 92 95 102 108 111 116 120 121 117 125 131 141 145 138 105 66 48
52 40 45 50 48 46 49 56 52 57 53 55 61 64 62 62 67 72 77 75 79 79 87 83 92 95 98 106 108 109 110 116 113 113 122 129 134 143 140 101 69 51 38
50 48 52 56 52 47 49 52 56 63 60 57 56 66 68 68 75 77 80 77 78 85 89 91 92 94 97 100 106 105 107 113 115 122 128 134 136 123 100 77 51 42 29
42 49 50 49 53 47 48 55 60 60 60 58 62 66 75 76 74 74 78 79 87 91 88 87 89 93 99 102 97 105 113 119 124 132 134 135 130 103 84 53 44 34 23
35 36 40 44 39 43 47 47 48 53 49 47 50 56 65 67 73 76 81 85 84 84 85 87 94 97 96 102 104 111 118 123 127 135 129 118 102 75 56 43 33 27 17
40 29 28 28 32 37 39 45 43 39 41 50 56 63 65 65 66 74 76 77 78 79 87 92 94 96 101 105 111 117 121 124 127 126 111 105 79 56 48 37 27 21 12
38 35 36 40 40 40 42 45 48 50 54 57 57 61 63 65 67 68 73 78 83 86 91 96 100 103 112 118 121 119 123 128 125 110 102 80 63 48 38 32 24 16 11
40 41 39 37 37 38 38 39 41 42 45 47 50 54 57 63 67 69 78 83 83 90 96 103 106 110 110 111 116 116 119 121 105 97 79 62 53 41 34 28 22 16 13
40 41 43 44 41 39 40 45 46 47 55 60 64 70 73 74 75 80 85 88 94 96 102 99 103 106 107 103 111 117 110 104 90 75 62 53 44 37 30 24 20 18 16
42 42 46 47 42 42 42 43 46 52 56 56 58 61 67 73 78 84 88 91 94 96 96 94 103 106 111 111 106 97 92 82 74 62 53 45 39 31 25 21 19 20 21
38 38 38 36 38 41 44 46 47 51 54 59 62 67 70 72 77 78 79 81 84 91 97 97 102 101 100 94 95 85 81 74 63 55 45 40 34 29 23 20 20 23 26